User: anonymous   Login
Location: Riverside
(39.1734°N, 77.8561°W)
Time: 12:07:51
(UTC+00:00)
Language:

Oscar 19 - Orbit

View from above orbital plane
View from above orbital plane
View from above satellite
View from above satellite

Ground track
Ground track

The orbit data is extracted from the following two-line orbital elements,

1 20442U 90005G   19323.77704330 +.00000002 +00000-0 +17058-4 0  9992
2 20442 098.6655 265.6234 0012748 058.1066 302.1356 14.32938242558386
Epoch (UTC): 19 November 2019 18:38:56
Eccentricity: 0.0012748
inclination: 98.6655°
perigee height: 773 km
apogee height: 791 km
right ascension of ascending node: 265.6234°
argument of perigee: 58.1066°
revolutions per day: 14.32938242
mean anomaly at epoch: 302.1356°
orbit number at epoch: 55838

The dashed part of the orbit path shows where the satellite is in the earth's shadow,  

DLR